Regional Weather Roundup
Issued by NWS

Home | Current Version | Previous Version | Text Only | Print | Product List | Glossary Off
Versions: 1 2 3 4 5 6 7 8 9 10 11 12 13 14 15 16 17 18 19 20 21 22 23 24 25 26 27 28 29 30 31 32 33 34 35 36 37 38 39 40 41 42 43 44 45 46 47 48 49 50

000
ASUS43 KMPX 292010
RWRMN
WEATHER ROUNDUP FOR MINNESOTA
NATIONAL WEATHER SERVICE TWIN CITIES/CHANHASSEN MN
300 PM CDT WED MAR 29 2017


NOTE: "FAIR" INDICATES FEW OR NO CLOUDS BELOW 12,000 FEET WITH NO
SIGNIFICANT WEATHER AND/OR OBSTRUCTIONS TO VISIBILITY. N/A MEANS
CURRENT SKY AND/OR WEATHER CONDITIONS ARE NOT AVAILABLE.

MNZ060>063-068>070-292100-
   Twin Cities Metro

CITY           SKY/WX    TMP DP  RH WIND       PRES   REMARKS
TWIN CITIES    CLOUDY    50  34  54 SE15G21   30.20F
ST PAUL        CLOUDY    50  36  58 SE12      30.21F
CRYSTAL        CLOUDY    51  33  50 S10       30.19F
BLAINE         CLOUDY    52  36  54 SE8       30.19F
LAKEVILLE      CLOUDY    46  37  71 SE9G18    30.19F
EDEN PRAIRIE   CLOUDY    51  35  54 SE17      30.18F
SOUTH ST PAUL  CLOUDY    49  34  55 S5        30.20F
LAKE ELMO      FAIR      50  36  57 S9        30.21F
$$
MNZ001>005-007-008-013>017-022>024-027-028-292100-
   Northwest Minnesota

CITY           SKY/WX    TMP DP  RH WIND       PRES   REMARKS
BEMIDJI        MOSUNNY   54  32  43 SE9       30.15F
HALLOCK        SUNNY     57  48  72 S13G21    30.08F
ROSEAU         SUNNY     61  43  51 S14       30.09F
WARROAD        SUNNY     52  37  58 E3        30.11F
THIEF RVR FALL SUNNY     59  36  42 S15       30.10F
CROOKSTON      SUNNY     61  43  51 S12       30.10F
FOSSTON        CLOUDY    61  32  33 S12       30.12F
DETROIT LAKES  CLOUDY    55  32  41 SE10      30.14F
MOORHEAD       MOSUNNY   57  43  58 S15       30.12F
PARK RAPIDS    MOSUNNY   54  30  40 SE12      30.15F
MAHNOMEN       FAIR      58  35  41 S13G18    30.12F
$$
MNZ006-009>011-018-025>026-292100-
   North Central Minnesota

CITY           SKY/WX    TMP DP  RH WIND       PRES   REMARKS
BAUDETTE       SUNNY     58  32  37 S13       30.13F
FLAG ISLAND    SUNNY     43  28  56 SE3       30.12F
INTL FALLS     MOSUNNY   52  30  43 SE13      30.18F
WASKISH        MOSUNNY   59  34  38 SE9       30.14F
BIG FORK       CLOUDY    52  32  46 SE6       30.19F
LONGVILLE      CLOUDY    50  34  53 S6        30.18F
GRAND RAPIDS   CLOUDY    46  31  55 SE8       30.22F
CRANE LAKE     MOSUNNY   50  27  40 S6        30.24F
ORR            CLOUDY    48  27  43 CALM      30.19F
COOK           CLOUDY    46  30  53 SE8       30.23F
WALKER         FAIR      49  31  50 E6        30.17S
$$
MNZ012-019>021-037-292100-
   Northeast Minnesota

CITY           SKY/WX    TMP DP  RH WIND       PRES   REMARKS
DULUTH         PTSUNNY   38  31  76 E14       30.24F
ELY            CLOUDY    43  27  52 SE13      30.24F
HIBBING        CLOUDY    44  30  57 SE9       30.22F
EVELETH        CLOUDY    44  23  44 E7        30.24F
DULUTH HARBOR  CLOUDY    36  34  93 NE22      30.30F
TWO HARBORS    CLOUDY    39  32  75 E16       30.27F
SILVER BAY     CLOUDY    36  28  75 E14       30.29F
GRAND MARAIS     N/A     35  29  78 E16       30.35F WCI  25
G MARAIS ARPRT CLOUDY    34  21  60 E10       30.30F WCI  26
$$
MNZ029>031-032-039>041-046>048-054>057-064-292100-
   West Central Minnesota

CITY           SKY/WX    TMP DP  RH WIND       PRES   REMARKS
FERGUS FALLS   PTSUNNY   57  36  44 SE12      30.15F
WHEATON        MOSUNNY   57  34  41 SE10G17   30.13F
MORRIS         CLOUDY    57  32  38 SE15      30.11F
ALEXANDRIA     CLOUDY    53  34  48 SE10      30.14F
ELBOW LAKE     FAIR      57  35  44 SE10      30.13F
WADENA         CLOUDY    54  36  50 S6        30.15F
GLENWOOD       CLOUDY    54  28  37 SE12      30.14F
APPLETON       CLOUDY    57  30  35 SE14      30.11F
BENSON         CLOUDY    55  28  35 S14       30.14F
ORTONVILLE     CLOUDY    57  36  44 SE13      30.11S
MADISON        CLOUDY    57  36  44 SE18      30.11F
WILLMAR        FAIR      52  37  58 SE14      30.16F
$$
MNZ033>034-036-042>043-049>051-058-059-292100-
   Central Minnesota

CITY           SKY/WX    TMP DP  RH WIND       PRES   REMARKS
ST CLOUD       CLOUDY    51  33  50 S8        30.17F
SAUK CENTRE    FAIR      52  34  50 SE10      30.16F
PAYNESVILLE    CLOUDY    51  35  53 SE12      30.16F
AITKIN         CLOUDY    54  30  40 SE5       30.18F
PINE RIVER     CLOUDY    50  36  57 SE8       30.21F
BRAINERD       CLOUDY    48  32  53 E6        30.18F
STAPLES        CLOUDY    52  30  43 E7        30.17S
LONG PRAIRIE   FAIR      50  32  50 E8        30.16F
LITTLE FALLS     N/A    N/A N/A N/A SE7         N/A
LITCHFIELD     CLOUDY    52  36  54 SE9       30.17F
BUFFALO        CLOUDY    51  34  53 E9        30.19F
MAPLE LAKE     CLOUDY    52  38  57 SE7       30.18F
HUTCHINSON     PTSUNNY   50  38  65 SE10      30.18F
$$
MNZ037-044-045-052-053-292100-
   East Central Minnesota

CITY           SKY/WX    TMP DP  RH WIND       PRES   REMARKS
PRINCETON      CLOUDY    52  34  50 E6        30.19F
MORA           CLOUDY    48  32  53 SE6       30.22F
CAMBRIDGE      CLOUDY    54  37  54 E6        30.17F
RUSH CITY      CLOUDY    51  33  49 E3        30.20F
MOOSE LAKE     CLOUDY    43  32  65 E7        30.21F
CLOQUET        CLOUDY    37  30  75 E8        30.24F
MCGREGOR       CLOUDY    46  34  61 E7        30.21F
$$
MNZ071>073-080-081-089-090-097-098-292100-
   Southwest Minnesota

CITY           SKY/WX    TMP DP  RH WIND       PRES   REMARKS
MONTEVIDEO     CLOUDY    54  34  47 S13       30.13F
GRANITE FALLS  CLOUDY    52  39  60 SE17      30.15F
CANBY          CLOUDY    55  34  44 E18G24    30.12S
MARSHALL       CLOUDY    50  36  58 SE21      30.12F
REDWOOD FALLS  CLOUDY    50  35  56 SE17      30.14F
OLIVIA         CLOUDY    50  34  53 SE16      30.14F
PIPESTONE      CLOUDY    48  32  53 SE18G29   30.08F
WINDOM         LGT RAIN  46  37  71 E17G26    30.12S
WORTHINGTON    LGT RAIN  43  38  82 E26G36    30.09S
JACKSON        LGT RAIN  43  37  81 E24       30.12R
TRACY          CLOUDY    49  39  70 E17G23    30.13F
SLAYTON        CLOUDY    46  38  74 E22G29    30.11F
$$
MNZ065>067-074>077-082>085-091>093-292100-
   South Central Minnesota

CITY           SKY/WX    TMP DP  RH WIND       PRES   REMARKS
MANKATO        LGT RAIN  45  40  82 E17G25    30.15F
NEW ULM        DRIZZLE   46  37  71 SE13      30.15F
ST JAMES       DRIZZLE   46  39  76 E17G24    30.15S
FAIRMONT       LGT RAIN  43  38  82 E23G31    30.13R
GLENCOE        CLOUDY    50  39  67 SE9       30.17F
FARIBAULT      DRIZZLE   46  39  76 E16G24    30.18F
OWATONNA       LGT RAIN  45  39  81 E20       30.17F
WASECA         LGT RAIN  43  37  81 E21G26    30.17F
ALBERT LEA     CLOUDY    45  36  70 E15       30.13F
$$
MNZ078>079-086>088-094>096-292100-
   Southeast Minnesota

CITY           SKY/WX    TMP DP  RH WIND       PRES   REMARKS
ROCHESTER      LGT RAIN  43  39  86 NE17      30.17F
RED WING       CLOUDY    48  34  57 SE10      30.21F
STANTON        CLOUDY    48  38  67 SE12G18   30.18F
DODGE CENTER   LGT RAIN  43  39  87 E20       30.18F
WINONA         LGT RAIN  41  39  93 CALM      30.22F
AUSTIN         CLOUDY    45  37  76 E16       30.13F
PRESTON        CLOUDY    43  36  76 NE8G16    30.16F
$$
ABBREVIATIONS USED IN REMARKS
   TC - TEMPERATURES IN CELSIUS
  WCI - WIND CHILL INDEX
   HX - HEAT INDEX
  VSB - VISIBILITY
$$




USA.gov is the U.S. government's official web portal to all federal, state and local government web resources and services.